W9BO-8 Weather Reports


Display with metric or nautical units.
time (UTC)temp
F
wind
direction
speed
MPH
gust
MPH
rain 1hr
in
rain 24hr
in
rain mn
in
humidity
%
barometer
mb
20210917155553 48 82 2.0 7.0 0.00 0.00 0.00 71 1013.1
20210917155040 47 141 4.0 7.0 0.00 0.00 0.00 74 1013.0
20210917154619 46 232 3.0 6.0 0.00 0.00 0.00 75 1013.0
20210917154022 45 137 3.0 7.0 0.00 0.00 0.00 78 1013.1
20210917153510 44 132 2.0 6.0 0.00 0.00 0.00 79 1013.0
20210917152548 43 205 3.0 5.0 0.00 0.00 0.00 81 1012.8
20210917152038 42 137 2.0 8.0 0.00 0.00 0.00 83 1012.8
20210917151531 42 137 2.0 8.0 0.00 0.00 0.00 84 1012.7
20210917151008 42 216 4.0 7.0 0.00 0.00 0.00 84 1012.6
20210917150310 40 195 2.0 5.0 0.00 0.00 0.00 80 1012.7
20210917145555 39 309 2.0 8.0 0.00 0.00 0.00 78 1012.5
20210917145039 39 56 2.0 8.0 0.00 0.00 0.00 77 1012.6
20210917144533 38 205 1.0 3.0 0.00 0.00 0.00 77 1012.3
20210917144014 37 137 1.0 5.0 0.00 0.00 0.00 77 1012.4
20210917143129 36 194 1.0 5.0 0.00 0.00 0.00 78 1012.3
20210917142543 36 148 1.0 5.0 0.00 0.00 0.00 78 1012.2
20210917142028 35 216 2.0 5.0 0.00 0.00 0.00 78 1012.1
20210917141543 35 216 2.0 4.0 0.00 0.00 0.00 78 1012.1
20210917140610 35 105 1.0 4.0 0.00 0.00 0.00 78 1012.0
20210917140116 35 205 1.0 3.0 0.00 0.00 0.00 79 1011.8
20210917135539 35 309 1.0 3.0 0.00 0.00 0.00 79 1011.7
20210917135014 35 265 1.0 4.0 0.00 0.00 0.00 79 1011.6
20210917134502 35 313 0.0 3.0 0.00 0.00 0.00 80 1011.7
20210917134052 35 336 1.0 3.0 0.00 0.00 0.00 80 1011.5
20210917133609 35 309 2.0 4.0 0.00 0.00 0.00 81 1011.5
20210917133213 36 34 1.0 5.0 0.00 0.00 0.00 80 1011.5
20210917132535 37 29 2.0 5.0 0.00 0.00 0.00 79 1011.4
20210917132005 37 360 1.0 5.0 0.00 0.00 0.00 79 1011.2
20210917131610 37 51 1.0 3.0 0.00 0.00 0.00 78 1011.1
20210917131048 37 325 1.0 3.0 0.00 0.00 0.00 78 1011.0
20210917130524 37 291 1.0 3.0 0.00 0.00 0.00 79 1010.8
20210917130036 36 265 2.0 3.0 0.00 0.00 0.00 79 1010.6
20210917125053 36 303 2.0 4.0 0.00 0.00 0.00 79 1010.5
20210917124735 36 314 1.0 5.0 0.00 0.00 0.00 80 1010.5
20210917124049 36 221 2.0 5.0 0.00 0.00 0.00 80 1010.5
20210917123515 36 346 1.0 4.0 0.00 0.00 0.00 81 1010.4
20210917123008 36 309 2.0 4.0 0.00 0.00 0.00 81 1010.3
20210917122603 36 327 2.0 4.0 0.00 0.00 0.00 82 1010.3
20210917122042 37 51 1.0 5.0 0.00 0.00 0.00 81 1010.2
20210917121538 37 273 2.0 5.0 0.00 0.00 0.00 82 1010.0
20210917121005 38 41 1.0 4.0 0.00 0.00 0.00 81 1010.0
20210917120605 38 30 1.0 5.0 0.00 0.00 0.00 80 1010.0
20210917120117 38 250 3.0 6.0 0.00 0.00 0.00 80 1009.9
20210917115539 38 201 2.0 6.0 0.00 0.00 0.00 80 1009.8
20210917115034 38 207 2.0 4.0 0.00 0.00 0.00 81 1009.8
20210917114532 38 51 1.0 3.0 0.00 0.00 0.00 81 1010.0
20210917114005 39 200 1.0 3.0 0.00 0.00 0.00 81 1009.8
20210917113555 39 171 1.0 3.0 0.00 0.00 0.00 81 1009.7
20210917113124 39 208 1.0 3.0 0.00 0.00 0.00 81 1009.7
20210917112531 39 144 1.0 3.0 0.00 0.00 0.00 82 1009.6
20210917112026 39 257 0.0 2.0 0.00 0.00 0.00 82 1009.5
20210917111529 39 93 1.0 3.0 0.00 0.00 0.00 82 1009.4
20210917110541 40 319 1.0 4.0 0.00 0.00 0.00 82 1009.1
20210917110043 39 210 2.0 4.0 0.00 0.00 0.00 82 1009.1
20210917105518 39 221 2.0 4.0 0.00 0.00 0.00 82 1008.9
20210917105007 40 279 1.0 3.0 0.00 0.00 0.00 81 1008.9
20210917104743 40 119 0.0 4.0 0.00 0.00 0.00 81 1008.9
20210917104048 40 250 2.0 4.0 0.00 0.00 0.00 81 1008.8
20210917103538 40 323 1.0 4.0 0.00 0.00 0.00 81 1008.7
20210917103044 39 313 3.0 4.0 0.00 0.00 0.00 81 1008.8
20210917102520 39 317 1.0 3.0 0.00 0.00 0.00 82 1008.7
20210917102009 39 329 2.0 3.0 0.00 0.00 0.00 82 1008.6
20210917101650 39 265 1.0 3.0 0.00 0.00 0.00 82 1008.5
20210917101047 39 302 2.0 3.0 0.00 0.00 0.00 83 1008.5
20210917100529 40 51 1.0 4.0 0.00 0.00 0.00 82 1008.2
20210917100012 40 325 1.0 4.0 0.00 0.00 0.00 83 1008.1
20210917095503 40 329 2.0 4.0 0.00 0.00 0.00 83 1008.0
20210917095051 40 309 1.0 6.0 0.00 0.00 0.00 83 1008.0
20210917094546 40 315 3.0 6.0 0.00 0.00 0.00 83 1007.7
20210917094029 41 316 2.0 4.0 0.00 0.00 0.00 83 1007.8
20210917093547 41 205 0.0 4.0 0.00 0.00 0.00 82 1007.8
20210917093005 41 344 1.0 4.0 0.00 0.00 0.00 82 1007.7
20210917092552 42 51 1.0 4.0 0.00 0.00 0.00 82 1007.5
20210917092057 42 153 1.0 6.0 0.00 0.00 0.00 81 1007.4
20210917091544 42 103 1.0 8.0 0.00 0.00 0.00 81 1007.3
20210917091007 42 195 3.0 6.0 0.00 0.00 0.00 81 1007.2
20210917090556 43 9 2.0 6.0 0.00 0.00 0.00 81 1007.3
20210917090100 43 314 2.0 8.0 0.00 0.00 0.00 80 1007.1
20210917085537 43 34 2.0 10.0 0.00 0.00 0.00 80 1007.0
20210917085022 43 291 2.0 10.0 0.00 0.00 0.00 80 1007.0
20210917084536 43 348 3.0 11.0 0.00 0.00 0.00 80 1006.9
20210917084005 43 17 4.0 10.0 0.00 0.00 0.00 80 1006.9
20210917083552 43 41 4.0 11.0 0.00 0.00 0.00 79 1006.9
20210917083215 43 33 4.0 11.0 0.00 0.00 0.00 79 1006.9
20210917082530 44 321 5.0 10.0 0.00 0.00 0.00 78 1006.9
20210917082020 44 327 4.0 11.0 0.00 0.00 0.00 77 1007.1
20210917081522 44 275 3.0 12.0 0.00 0.00 0.00 77 1006.9
20210917081134 44 279 5.0 10.0 0.00 0.00 0.00 76 1006.9
20210917080537 44 297 2.0 12.0 0.00 0.00 0.00 73 1007.0
20210917080025 45 314 4.0 13.0 0.00 0.00 0.00 72 1006.8
20210917075512 45 28 3.0 11.0 0.00 0.00 0.00 69 1007.0
20210917075054 46 340 4.0 11.0 0.00 0.00 0.00 67 1006.9
20210917074559 47 319 4.0 11.0 0.00 0.00 0.00 64 1006.8
20210917074026 48 38 3.0 11.0 0.00 0.00 0.00 61 1006.7
20210917073514 48 26 2.0 13.0 0.00 0.00 0.00 57 1006.7
20210917072549 50 19 4.0 12.0 0.00 0.00 0.00 51 1006.5
20210917072036 51 67 3.0 14.0 0.00 0.00 0.00 48 1006.4
20210917071601 51 341 3.0 14.0 0.00 0.00 0.00 46 1006.0
20210917070553 52 344 4.0 11.0 0.00 0.00 0.00 41 1005.8
20210917070119 53 250 2.0 14.0 0.00 0.00 0.00 36 1005.7
20210917065530 54 332 3.0 14.0 0.00 0.00 0.00 32 1005.7
20210917065008 56 325 5.0 10.0 0.00 0.00 0.00 27 1005.5
20210917064701 57 338 3.0 13.0 0.00 0.00 0.00 23 1005.4
20210917064051 58 337 4.0 13.0 0.00 0.00 0.00 22 1005.4
20210917063531 58 13 6.0 16.0 0.00 0.00 0.00 20 1005.1
20210917063050 59 342 6.0 16.0 0.00 0.00 0.00 21 1005.0
20210917062510 59 242 7.0 17.0 0.00 0.00 0.00 20 1004.9
20210917062102 59 267 7.0 17.0 0.00 0.00 0.00 20 1004.8
20210917061627 59 257 9.0 16.0 0.00 0.00 0.00 20 1004.6
20210917061033 59 299 9.0 18.0 0.00 0.00 0.00 20 1004.5
20210917060510 59 242 11.0 18.0 0.00 0.00 0.00 20 1004.4
20210917060228 59 281 9.0 18.0 0.00 0.00 0.00 20 1004.3
20210917055549 60 303 11.0 22.0 0.00 0.00 0.00 20 1004.2
20210917055043 60 259 8.0 22.0 0.00 0.00 0.00 20 1004.1
20210917054802 60 193 9.0 17.0 0.00 0.00 0.00 21 1004.0
20210917054024 59 281 8.0 17.0 0.00 0.00 0.00 21 1003.8
20210917053516 60 239 10.0 20.0 0.00 0.00 0.00 21 1003.8
20210917053012 60 241 11.0 20.0 0.00 0.00 0.00 21 1003.7
20210917052617 60 250 11.0 17.0 0.00 0.00 0.00 20 1003.7
20210917052105 60 242 9.0 23.0 0.00 0.00 0.00 21 1003.5
20210917051603 60 263 10.0 23.0 0.00 0.00 0.00 21 1003.4
20210917051028 60 247 12.0 23.0 0.00 0.00 0.00 21 1003.4
20210917050517 60 259 13.0 25.0 0.00 0.00 0.00 21 1003.4
20210917050124 61 183 12.0 25.0 0.00 0.00 0.00 21 1003.4
20210917045615 60 229 13.0 25.0 0.00 0.00 0.00 22 1003.3
20210917045040 60 292 12.0 25.0 0.00 0.00 0.00 22 1003.3
20210917044552 60 232 15.0 31.0 0.00 0.00 0.00 22 1003.2
20210917044023 60 270 13.0 31.0 0.00 0.00 0.00 23 1003.2
20210917043532 60 223 9.0 28.0 0.00 0.00 0.00 23 1003.1
20210917043007 60 257 11.0 28.0 0.00 0.00 0.00 23 1003.1
20210917042604 60 265 10.0 24.0 0.00 0.00 0.00 23 1003.0
20210917042048 60 207 11.0 24.0 0.00 0.00 0.00 24 1003.0
20210917041554 60 227 8.0 21.0 0.00 0.00 0.00 24 1003.0
20210917041015 60 255 10.0 23.0 0.00 0.00 0.00 25 1003.0
20210917040600 60 250 12.0 23.0 0.00 0.00 0.00 24 1002.9
20210917040141 61 273 8.0 24.0 0.00 0.00 0.00 25 1002.9
20210917035543 61 259 13.0 24.0 0.00 0.00 0.00 25 1003.1
20210917035037 61 307 8.0 23.0 0.00 0.00 0.00 25 1003.0
20210917034526 61 261 10.0 17.0 0.00 0.00 0.00 25 1003.0
20210917034034 61 228 10.0 33.0 0.00 0.00 0.00 25 1002.9
20210917033510 61 244 12.0 22.0 0.00 0.00 0.00 25 1002.9
20210917033225 61 305 10.0 21.0 0.00 0.00 0.00 25 1002.9
20210917032551 61 321 10.0 22.0 0.00 0.00 0.00 25 1002.9
20210917032038 61 247 8.0 24.0 0.00 0.00 0.00 25 1002.8
20210917031702 62 257 11.0 24.0 0.00 0.00 0.00 25 1002.8
20210917031007 62 259 10.0 23.0 0.00 0.00 0.00 24 1002.7
20210917030604 62 269 10.0 23.0 0.00 0.00 0.00 24 1002.7
20210917030122 62 267 9.0 18.0 0.00 0.00 0.00 24 1002.7
20210917025543 62 207 9.0 28.0 0.00 0.00 0.00 24 1002.5
20210917025041 62 266 14.0 28.0 0.00 0.00 0.00 24 1002.5
20210917024523 62 241 12.0 25.0 0.00 0.00 0.00 24 1002.4
20210917024013 62 255 14.0 25.0 0.00 0.00 0.00 24 1002.4
20210917023513 62 223 12.0 27.0 0.00 0.00 0.00 24 1002.3
20210917023119 62 241 12.0 27.0 0.00 0.00 0.00 24 1002.3
20210917022548 62 300 12.0 28.0 0.00 0.00 0.00 24 1002.2
20210917022039 62 232 10.0 23.0 0.00 0.00 0.00 24 1002.1
20210917021533 62 304 11.0 21.0 0.00 0.00 0.00 24 1001.9
20210917021008 63 247 9.0 18.0 0.00 0.00 0.00 23 1001.8
20210917020141 63 302 7.0 19.0 0.00 0.00 0.00 23 1001.8
20210917015604 63 306 7.0 20.0 0.00 0.00 0.00 23 1001.8
20210917015042 63 280 9.0 20.0 0.00 0.00 0.00 23 1001.7
20210917014546 63 265 9.0 20.0 0.00 0.00 0.00 22 1001.7
20210917014034 64 279 9.0 18.0 0.00 0.00 0.00 22 1001.6
20210917013502 64 269 9.0 21.0 0.00 0.00 0.00 22 1001.5
20210917013147 64 241 8.0 22.0 0.00 0.00 0.00 22 1001.5
20210917012547 64 284 9.0 18.0 0.00 0.00 0.00 22 1001.3
20210917012038 64 259 9.0 26.0 0.00 0.00 0.00 22 1001.2
20210917011543 64 298 9.0 26.0 0.00 0.00 0.00 22 1001.2
20210917011020 64 234 8.0 18.0 0.00 0.00 0.00 21 1001.1
20210917010126 65 261 7.0 18.0 0.00 0.00 0.00 21 1001.1
20210917005547 65 243 8.0 17.0 0.00 0.00 0.00 21 1001.1
20210917005035 65 270 3.0 17.0 0.00 0.00 0.00 21 1001.1
20210917004637 66 259 4.0 17.0 0.00 0.00 0.00 21 1001.0
20210917004013 66 259 8.0 17.0 0.00 0.00 0.00 20 1001.0
20210917003505 67 261 5.0 15.0 0.00 0.00 0.00 20 1000.9
20210917003114 68 295 8.0 15.0 0.00 0.00 0.00 19 1000.9
20210917002549 68 280 4.0 14.0 0.00 0.00 0.00 19 1001.0
20210917002046 69 186 3.0 14.0 0.00 0.00 0.00 18 1001.0
20210917001542 70 282 6.0 19.0 0.00 0.00 0.00 18 1000.9
20210917001002 69 294 7.0 19.0 0.00 0.00 0.00 18 1000.8
20210917000624 69 303 7.0 16.0 0.00 0.00 0.00 18 1000.7
20210917000101 70 315 5.0 12.0 0.00 0.00 0.00 18 1000.7
20210916235536 69 247 3.0 14.0 0.00 0.00 0.00 18 1000.7
20210916235045 69 219 2.0 15.0 0.00 0.00 0.00 18 1000.6
20210916234531 70 247 5.0 16.0 0.00 0.00 0.00 18 1000.5
20210916234011 70 324 5.0 16.0 0.00 0.00 0.00 18 1000.4
20210916233140 71 279 6.0 16.0 0.00 0.00 0.00 17 1000.3
20210916232547 73 301 3.0 21.0 0.00 0.00 0.00 16 1000.3
20210916232029 73 319 6.0 17.0 0.00 0.00 0.00 16 1000.2
20210916231532 73 238 4.0 13.0 0.00 0.00 0.00 17 1000.3
20210916230607 72 76 4.0 10.0 0.00 0.00 0.00 18 1000.1
20210916230117 71 178 3.0 11.0 0.00 0.00 0.00 19 1000.1
20210916225537 70 36 4.0 11.0 0.00 0.00 0.00 19 1000.1
20210916225026 70 61 3.0 10.0 0.00 0.00 0.00 19 1000.0
20210916224608 70 63 4.0 12.0 0.00 0.00 0.00 18 1000.1
20210916224007 72 72 5.0 12.0 0.00 0.00 0.00 17 1000.1
20210916223304 72 47 2.0 10.0 0.00 0.00 0.00 18 1000.0
20210916222604 72 86 3.0 10.0 0.00 0.00 0.00 18 1000.0
20210916222038 71 78 2.0 10.0 0.00 0.00 0.00 18 1000.0
20210916221536 70 11 3.0 10.0 0.00 0.00 0.00 19 999.9
20210916221005 69 314 1.0 10.0 0.00 0.00 0.00 19 999.9
20210916220557 69 43 2.0 10.0 0.00 0.00 0.00 19 999.7
20210916220140 69 59 3.0 9.0 0.00 0.00 0.00 19 999.8
20210916215539 69 13 2.0 7.0 0.00 0.00 0.00 19 999.9
20210916215040 69 56 3.0 8.0 0.00 0.00 0.00 19 1000.0
20210916214524 69 22 3.0 12.0 0.00 0.00 0.00 19 999.9
20210916214028 70 38 2.0 16.0 0.00 0.00 0.00 18 999.9
20210916213201 70 324 5.0 14.0 0.00 0.00 0.00 18 999.9
20210916212544 70 105 4.0 13.0 0.00 0.00 0.00 18 999.8
20210916212139 70 311 3.0 11.0 0.00 0.00 0.00 19 999.8
20210916211535 70 41 2.0 13.0 0.00 0.00 0.00 19 999.9
20210916211007 69 298 2.0 15.0 0.00 0.00 0.00 19 999.9
20210916210609 69 332 7.0 15.0 0.00 0.00 0.00 19 999.9
20210916210114 70 178 4.0 17.0 0.00 0.00 0.00 19 999.9
20210916205605 70 315 4.0 17.0 0.00 0.00 0.00 19 1000.0
20210916205034 70 146 6.0 16.0 0.00 0.00 0.00 19 999.9
20210916204537 70 310 3.0 11.0 0.00 0.00 0.00 19 1000.0
20210916204011 71 229 8.0 11.0 0.00 0.00 0.00 17 1000.0
20210916203124 70 123 1.0 5.0 0.00 0.00 0.00 19 1000.2
20210916202540 69 65 1.0 5.0 0.00 0.00 0.00 18 1000.3
20210916202046 69 340 2.0 5.0 0.00 0.00 0.00 18 1000.2
20210916201533 69 178 1.0 6.0 0.00 0.00 0.00 18 1000.3
20210916201005 69 67 2.0 9.0 0.00 0.00 0.00 18 1000.3
20210916200607 70 9 2.0 10.0 0.00 0.00 0.00 17 1000.2
20210916200114 70 44 2.0 11.0 0.00 0.00 0.00 17 1000.3
20210916195530 71 74 4.0 13.0 0.00 0.00 0.00 17 1000.4
20210916195019 71 63 3.0 13.0 0.00 0.00 0.00 17 1000.6
20210916194527 70 93 2.0 10.0 0.00 0.00 0.00 17 1000.7
20210916193554 70 51 2.0 11.0 0.00 0.00 0.00 17 1000.6
20210916193147 71 93 4.0 12.0 0.00 0.00 0.00 16 1000.7
20210916192525 71 41 5.0 12.0 0.00 0.00 0.00 17 1000.8
20210916192024 71 195 1.0 7.0 0.00 0.00 0.00 17 1001.0
20210916191506 71 132 2.0 7.0 0.00 0.00 0.00 16 1000.9
20210916191058 70 178 1.0 14.0 0.00 0.00 0.00 16 1000.9
20210916190552 71 171 7.0 14.0 0.00 0.00 0.00 14 1001.1
20210916190107 73 90 5.0 12.0 0.00 0.00 0.00 14 1001.2
20210916185519 72 171 6.0 17.0 0.00 0.00 0.00 15 1001.2
20210916185016 72 183 10.0 16.0 0.00 0.00 0.00 15 1001.0
20210916184501 71 236 7.0 17.0 0.00 0.00 0.00 15 1001.0
20210916184055 71 252 9.0 19.0 0.00 0.00 0.00 15 1001.2
20210916183556 73 207 12.0 19.0 0.00 0.00 0.00 14 1001.2
20210916183050 73 216 9.0 19.0 0.00 0.00 0.00 14 1001.1
20210916182521 71 262 9.0 17.0 0.00 0.00 0.00 14 1001.2
20210916182008 71 191 3.0 16.0 0.00 0.00 0.00 15 1001.3
20210916181832 70 282 6.0 18.0 0.00 0.00 0.00 16 1001.4
20210916181050 71 150 10.0 18.0 0.00 0.00 0.00 16 1001.3
20210916180529 70 270 9.0 14.0 0.00 0.00 0.00 16 1001.4
20210916180039 70 291 4.0 19.0 0.00 0.00 0.00 16 1001.4
20210916175509 70 185 9.0 22.0 0.00 0.00 0.00 16 1001.5
20210916174714 70 234 11.0 26.0 0.00 0.00 0.00 16 1001.6
20210916174043 71 164 11.0 26.0 0.00 0.00 0.00 16 1001.6
20210916173529 71 182 10.0 24.0 0.00 0.00 0.00 16 1001.6
20210916173043 70 275 8.0 24.0 0.00 0.00 0.00 16 1001.9
20210916172507 70 171 7.0 16.0 0.00 0.00 0.00 17 1001.9
20210916172125 70 182 12.0 17.0 0.00 0.00 0.00 17 1001.9
20210916171623 70 195 9.0 17.0 0.00 0.00 0.00 17 1002.0
20210916171044 69 187 10.0 20.0 0.00 0.00 0.00 16 1002.0
20210916170530 69 182 10.0 20.0 0.00 0.00 0.00 17 1002.0
20210916170011 70 191 11.0 21.0 0.00 0.00 0.00 16 1002.3
20210916165559 70 207 7.0 13.0 0.00 0.00 0.00 16 1002.2
20210916165108 70 186 5.0 13.0 0.00 0.00 0.00 16 1002.3
20210916164615 69 173 5.0 13.0 0.00 0.00 0.00 18 1002.4
20210916164022 68 229 6.0 13.0 0.00 0.00 0.00 19 1002.5
20210916163514 68 200 6.0 17.0 0.00 0.00 0.00 19 1002.5
20210916163004 68 221 6.0 17.0 0.00 0.00 0.00 19 1002.6
20210916162625 69 192 6.0 11.0 0.00 0.00 0.00 19 1002.6
20210916162042 68 93 2.0 12.0 0.00 0.00 0.00 18 1002.7
20210916161542 67 194 3.0 12.0 0.00 0.00 0.00 19 1002.7
20210916161012 68 196 2.0 13.0 0.00 0.00 0.00 18 1002.7
20210916160502 68 196 5.0 13.0 0.00 0.00 0.00 18 1002.8
20210916160119 68 196 4.0 13.0 0.00 0.00 0.00 20 1002.9